[[{"header":{"parameterUnit":"m.s-1","parameterCategory":1,"la1":30.2991,"la2":30.254,"lo1":-89.0895,"lo2":-89.0444,"dy":0.0017,"dx":0.0017,"nx":28,"ny":28,"refTime":"2025-09-18T03:00:00:Z","depth":0,"parameterNumber":2,"parameterNumberName":"U-component_of_WINDS"},"data":[0,0,0,0,0,0,0,0,0,0,0,0,0,0,0,0,0,0,0,0,0,0,0,0,0,0,0,0,0,0,0,0,0,0,0,0,0,0,0,0,0,0,0,0,0,0,0,0,0,0,0,0,0,0,0,0,0,0,0.7514,0.7514,0,0.7521,0.7521,0.7521,0.7543,0.7543,0.7544,0.7544,0.7549,0.7548,0.7548,0,0,0,0,0,0,0,0,0,0,0,0,0,0.7518,0.7518,0.7514,0.7514,0.7514,0.7521,0.7521,0.7521,0.7542,0.7543,0.7544,0.7544,0.7549,0.7548,0.7548,0,0,0,0,0,0,0,0,0,0,0,0,0,0.7519,0.7518,0.7514,0.7526,0.7527,0.7521,0.7521,0.7521,0.7542,0.7543,0.7544,0.7544,0.7549,0.7548,0.7548,0.753,0,0,0.7546,0.7546,0,0,0,0,0,0,0,0,0.7519,0.7519,0.7524,0.7525,0.7526,0.7532,0.7524,0.7524,0.7542,0.7536,0.7544,0.7545,0.7542,0.7542,0.7542,0.753,0.753,0.7546,0.7546,0.7546,0.7546,0,0,0,0,0,0,0,0.7519,0.7519,0.7517,0.7524,0.7525,0.753,0.7531,0.7524,0.7535,0.7537,0.7539,0.7539,0.7543,0.7542,0.7542,0.7531,0.7546,0.7546,0.7546,0.7545,0.7502,0.7501,0,0,0,0,0,0,0.7518,0.7519,0.7516,0.7517,0.7525,0.7529,0.753,0.7529,0.7535,0.7537,0.7539,0.754,0.7543,0.7543,0.7542,0.752,0.7546,0.7545,0.7545,0.7503,0.7502,0.7501,0,0,0,0,0,0,0.7518,0.7517,0.7516,0.7518,0.7518,0.7528,0.7527,0.7529,0.7528,0.7536,0.7538,0.7536,0.7543,0.7543,0.7533,0.752,0.7545,0.7545,0.7504,0.7503,0.7501,0.7476,0,0,0,0,0,0,0.7518,0.7517,0.7511,0.7518,0.7518,0.7507,0.7526,0.7528,0.7527,0.753,0.7534,0.7536,0.7544,0.7533,0.7532,0.752,0.7544,0.7505,0.7503,0.7502,0.7478,0.7474,0.7471,0,0,0,0,0,0.7518,0.7504,0.7511,0.751,0.7511,0.7506,0.7506,0.7516,0.7527,0.752,0.7525,0.7536,0.7522,0.7532,0.7531,0.7519,0.7506,0.7504,0.7502,0.7479,0.7475,0.7471,0,0,0,0,0,0,0.7495,0.7505,0.7513,0.7501,0.7502,0.751,0.7502,0.7511,0.751,0.7512,0.7524,0.7525,0.7512,0.7515,0.7525,0.75,0.7516,0.7514,0.7499,0.7495,0.7491,0.749,0.7544,0,0,0,0,0,0.7489,0.7485,0.7493,0.7482,0.7482,0.7492,0.749,0.7498,0.75,0.75,0.7505,0.7506,0.7502,0.7499,0.7495,0.7479,0.7479,0.747,0.7466,0.7463,0.746,0.745,0.7445,0.7495,0.7495,0.7495,0,0,0.7475,0.748,0.7477,0.7477,0.748,0.7474,0.7492,0.7486,0.7481,0.7499,0.7489,0.7492,0.7494,0.748,0.7474,0.7482,0.7447,0.7461,0.7458,0.7457,0.7447,0.7442,0.7438,0.7493,0.7494,0.7494,0,0,0.7447,0.7452,0.7442,0.7443,0.7447,0.7453,0.745,0.7456,0.7459,0.7449,0.7462,0.7456,0.745,0.745,0.7449,0.742,0.7429,0.7418,0.7399,0.7388,0.7384,0.738,0.7368,0.7363,0.7416,0.7416,0.7416,0,0.743,0.7423,0.7435,0.7427,0.7426,0.7443,0.7432,0.7433,0.7434,0.7433,0.7442,0.7432,0.7435,0.7419,0.7412,0.7412,0.7408,0.7417,0.7384,0.738,0.7377,0.7365,0.7361,0.7415,0.7415,0.7415,0.7415,0,0.74,0.7395,0.7386,0.7387,0.7386,0.7376,0.7386,0.7383,0.739,0.7395,0.7384,0.7387,0.7384,0.7381,0.7389,0.7367,0.7371,0.7382,0.7397,0.7371,0.736,0.7355,0.7413,0.7413,0.7413,0.7414,0,0,0.7358,0.7365,0.7362,0.7362,0.7366,0.7362,0.7352,0.735,0.7345,0.7346,0.7337,0.733,0.734,0.7339,0.7346,0.7337,0.7311,0.7349,0.7349,0.734,0.7284,0.7274,0.7269,0.7318,0.7317,0.7317,0.7283,0,0.733,0.7315,0.7325,0.7308,0.7302,0.7317,0.7309,0.731,0.7314,0.7308,0.7313,0.7307,0.7321,0.732,0.7312,0.7316,0.73,0.7319,0.7308,0.7307,0.7305,0.7263,0.7254,0.7222,0.7279,0.7278,0.7278,0,0.7295,0.7294,0.7276,0.728,0.7278,0.727,0.7267,0.7263,0.7263,0.7267,0.7265,0.7275,0.7264,0.7281,0.7265,0.7278,0.7274,0.7275,0.7274,0.7272,0.7289,0.7258,0.7212,0.7206,0.7272,0.7272,0.7273,0,0.7263,0.7257,0.7245,0.7245,0.725,0.7243,0.7245,0.7247,0.7244,0.7241,0.7239,0.7235,0.7233,0.7229,0.7236,0.7248,0.7219,0.7237,0.722,0.7219,0.7212,0.7212,0.7162,0.7213,0.7213,0.7213,0.7213,0,0.7229,0.7217,0.723,0.7223,0.7209,0.722,0.7206,0.7209,0.721,0.7203,0.7216,0.7208,0.722,0.7212,0.7218,0.7203,0.7203,0.7204,0.7205,0.7201,0.7201,0.7197,0.7199,0.7212,0.7212,0.7212,0.7213,0,0.719,0.7199,0.7186,0.7192,0.7193,0.7182,0.7186,0.7179,0.7184,0.7174,0.7172,0.7179,0.7172,0.7179,0.7172,0.7176,0.7155,0.7161,0.7154,0.7155,0.7137,0.7138,0.7082,0.7074,0.7132,0.7132,0.7131,0,0.7167,0.7158,0.7163,0.7158,0.7159,0.7153,0.7149,0.716,0.7156,0.7156,0.7148,0.7141,0.7136,0.7122,0.7126,0.712,0.7124,0.7105,0.7123,0.7119,0.7121,0.712,0.7118,0.7101,0.71,0.71,0.7099,0,0.7124,0.7129,0.7124,0.7121,0.7117,0.7114,0.7113,0.7108,0.7119,0.7114,0.7106,0.7102,0.7094,0.7086,0.7082,0.7082,0.7091,0.7094,0.7089,0.7084,0.708,0.7079,0.7142,0.7095,0.7095,0.7095,0.7096,0.7096,0.7091,0.7083,0.7084,0.7078,0.7078,0.7076,0.7068,0.7073,0.7066,0.7061,0.7068,0.7057,0.7057,0.7051,0.705,0.7041,0.7049,0.7043,0.7041,0.7039,0.7035,0.7083,0.7041,0.7041,0.7041,0.7041,0.7041,0,0.7047,0.7048,0.7043,0.704,0.7035,0.7046,0.7044,0.7038,0.7029,0.7028,0.7023,0.7013,0.7005,0.7008,0.7001,0.6993,0.6997,0.6991,0.699,0.699,0.703,0.7033,0.6988,0.6988,0.6988,0.6988,0.6988,0.6988,0.7023,0.7009,0.7013,0.6999,0.7,0.699,0.6988,0.6986,0.6985,0.6973,0.6967,0.6969,0.6969,0.6962,0.6955,0.6956,0.6952,0.6943,0.6945,0.6982,0.6987,0.6992,0.6995,0.6943,0.6942,0.6906,0.6905,0.6905]},{"header":{"parameterUnit":"m.s-1","parameterCategory":1,"la1":30.2991,"la2":30.254,"lo1":-89.0895,"lo2":-89.0444,"dy":0.0017,"dx":0.0017,"nx":28,"ny":28,"refTime":"2025-09-18T03:00:00:Z","depth":0,"parameterNumber":3,"parameterNumberName":"V-component_of_WINDS"},"data":[0,0,0,0,0,0,0,0,0,0,0,0,0,0,0,0,0,0,0,0,0,0,0,0,0,0,0,0,0,0,0,0,0,0,0,0,0,0,0,0,0,0,0,0,0,0,0,0,0,0,0,0,0,0,0,0,0,0,2.3097,2.3098,0,2.3137,2.3138,2.3138,2.311,2.3109,2.3108,2.3107,2.3146,2.3148,2.315,0,0,0,0,0,0,0,0,0,0,0,0,0,2.2994,2.2996,2.3097,2.3098,2.3098,2.3137,2.3138,2.3138,2.3111,2.3109,2.3108,2.3106,2.3145,2.3148,2.315,0,0,0,0,0,0,0,0,0,0,0,0,0,2.3037,2.2996,2.3097,2.3089,2.3089,2.3137,2.3138,2.3138,2.3111,2.3109,2.3107,2.3105,2.3144,2.3147,2.3151,2.3208,0,0,2.3161,2.3162,0,0,0,0,0,0,0,0,2.3034,2.304,2.309,2.309,2.309,2.3117,2.3115,2.3162,2.3111,2.3103,2.3107,2.3105,2.3138,2.3141,2.3153,2.321,2.3212,2.3161,2.3163,2.3164,2.3165,0,0,0,0,0,0,0,2.3031,2.3039,2.3113,2.3091,2.309,2.3083,2.3087,2.3124,2.313,2.3103,2.3101,2.3106,2.3137,2.315,2.3154,2.3212,2.3161,2.3164,2.3166,2.3167,2.3316,2.3318,0,0,0,0,0,0,2.3029,2.3036,2.3112,2.3114,2.3057,2.3086,2.309,2.311,2.3129,2.3131,2.3108,2.3105,2.3145,2.315,2.3155,2.3221,2.3164,2.3168,2.3169,2.3314,2.3316,2.3318,0,0,0,0,0,0,2.3027,2.3036,2.311,2.3075,2.3084,2.309,2.3112,2.3112,2.3124,2.3133,2.3134,2.312,2.3144,2.315,2.3195,2.3222,2.3169,2.3172,2.3312,2.3315,2.3317,2.3356,0,0,0,0,0,0,2.3024,2.3036,2.3059,2.3076,2.3086,2.315,2.3114,2.3114,2.313,2.3127,2.3145,2.3146,2.3143,2.319,2.3198,2.3226,2.3175,2.3309,2.3313,2.3316,2.3353,2.336,2.3367,0,0,0,0,0,2.3021,2.3068,2.306,2.3069,2.3114,2.3152,2.3158,2.3154,2.3133,2.3155,2.316,2.3145,2.3218,2.3195,2.3204,2.3233,2.3307,2.3312,2.3316,2.3349,2.3359,2.3367,0,0,0,0,0,0,2.3055,2.307,2.3061,2.3116,2.3133,2.3147,2.3175,2.3164,2.3187,2.3183,2.3177,2.3181,2.3227,2.3235,2.3208,2.3288,2.3259,2.3266,2.3282,2.3291,2.3298,2.3294,2.3177,0,0,0,0,0,2.3068,2.3099,2.3111,2.3157,2.3166,2.317,2.3186,2.3181,2.3198,2.3205,2.3214,2.323,2.3257,2.3274,2.3299,2.3354,2.3356,2.3378,2.3386,2.3391,2.3396,2.3423,2.3433,2.3333,2.3333,2.3333,0,0,2.3097,2.3109,2.3129,2.3164,2.3177,2.3207,2.3176,2.3209,2.3231,2.321,2.3252,2.3259,2.3277,2.3326,2.3348,2.3334,2.3425,2.3397,2.3402,2.3404,2.3429,2.3438,2.3447,2.3336,2.3336,2.3335,0,0,2.3164,2.3178,2.3217,2.323,2.3249,2.3251,2.326,2.3276,2.328,2.3322,2.3306,2.3332,2.3378,2.3391,2.3403,2.3473,2.3459,2.3482,2.3518,2.3545,2.3552,2.3559,2.3582,2.3591,2.3487,2.3487,2.3487,0,2.3197,2.3243,2.3238,2.3273,2.3287,2.327,2.3309,2.3322,2.3348,2.3358,2.3342,2.3398,2.3409,2.346,2.3477,2.3488,2.3497,2.3479,2.3552,2.3559,2.3565,2.3587,2.3595,2.349,2.3489,2.3489,2.3489,0,2.3281,2.3312,2.3342,2.3367,2.3386,2.3422,2.3422,2.3441,2.3435,2.3437,2.3479,2.3492,2.3518,2.353,2.3524,2.3579,2.3569,2.3553,2.3523,2.3577,2.3597,2.3605,2.3493,2.3492,2.3491,2.3491,0,0,2.3371,2.3392,2.3403,2.3413,2.3433,2.3456,2.3491,2.3517,2.3532,2.3551,2.3578,2.3617,2.3601,2.3615,2.3611,2.3634,2.3686,2.3614,2.3615,2.3625,2.3744,2.3755,2.3765,2.3677,2.3679,2.368,2.3742,0,2.3437,2.3498,2.3494,2.3551,2.3578,2.3561,2.3591,2.3606,2.3609,2.3632,2.3635,2.3662,2.364,2.3648,2.3671,2.3675,2.3709,2.3671,2.3701,2.3702,2.3695,2.3776,2.3788,2.3846,2.375,2.3751,2.3752,0,2.3523,2.3544,2.3603,2.3616,2.3627,2.3654,2.3676,2.3699,2.3714,2.3715,2.373,2.3721,2.3754,2.3725,2.377,2.3743,2.3755,2.3759,2.3761,2.3762,2.3729,2.3777,2.3864,2.3872,2.3765,2.3764,2.3763,0,2.3579,2.3622,2.3662,2.3672,2.3689,2.3708,2.3716,2.3729,2.3744,2.3763,2.3772,2.3796,2.3808,2.3825,2.3822,2.3801,2.3866,2.3837,2.3866,2.3866,2.3879,2.3878,2.3967,2.3891,2.389,2.389,2.389,0,2.3653,2.3689,2.3688,2.3712,2.3752,2.3747,2.3786,2.3791,2.3803,2.3827,2.3815,2.3837,2.3833,2.3855,2.3853,2.3889,2.3895,2.3895,2.3894,2.3895,2.3895,2.3902,2.3897,2.3893,2.3892,2.3892,2.3891,0,2.3722,2.3723,2.3765,2.3778,2.3781,2.381,2.3819,2.3842,2.3844,2.3874,2.3881,2.3884,2.391,2.3908,2.3938,2.3936,2.3979,2.3974,2.3974,2.3972,2.4,2.3997,2.4096,2.4107,2.4025,2.4026,2.4026,0,2.3768,2.3795,2.381,2.3825,2.3834,2.386,2.3874,2.387,2.3886,2.3904,2.3924,2.3948,2.3967,2.4009,2.4012,2.4034,2.4028,2.4061,2.4031,2.4031,2.4026,2.4024,2.4025,2.4067,2.4068,2.4068,2.4069,0,2.3849,2.3847,2.387,2.3891,2.3909,2.3926,2.3942,2.3955,2.3952,2.397,2.3996,2.4011,2.404,2.4064,2.4084,2.4091,2.4079,2.4079,2.4086,2.4087,2.4085,2.4084,2.3988,2.4076,2.4075,2.4075,2.4074,2.4074,2.3906,2.3929,2.3942,2.3966,2.3978,2.3992,2.4013,2.4017,2.4039,2.4062,2.4058,2.4086,2.4099,2.4125,2.4134,2.4155,2.4143,2.4154,2.4157,2.4159,2.4161,2.4083,2.4159,2.4159,2.4158,2.4158,2.4158,0,2.3984,2.3992,2.4014,2.4036,2.4055,2.4042,2.4058,2.4074,2.41,2.4113,2.4131,2.416,2.4182,2.4188,2.4209,2.4225,2.4219,2.423,2.4228,2.4229,2.4172,2.4162,2.4234,2.4234,2.4234,2.4234,2.4234,2.4234,2.4027,2.4063,2.4063,2.4105,2.4112,2.4139,2.4149,2.4162,2.4172,2.4204,2.4223,2.4226,2.4235,2.4257,2.4276,2.4277,2.4284,2.4297,2.4295,2.4241,2.4233,2.4226,2.4217,2.4299,2.4299,2.4351,2.4351,2.4351]}]]